Location: Dvorishche
(53.8500°N, 0.0000°E)
Time: 13:44:35
(UTC+03:00)

X-37B - Visible Passes

Search period start: 09 August 2022 00:00
Search period end: 19 August 2022 00:00
Orbit: 328 x 343 km, 45.0° (Epoch: 27 July)

Date Brightness Start Highest point End Pass type
(mag) Time Alt. Az. Time Alt. Az. Time Alt. Az.
10 Aug 2.7 05:47:02 12° SSE 05:47:02 12° SSE 05:48:10 10° SE visible
11 Aug 2.4 06:06:31 14° S 06:07:04 14° S 06:08:46 10° SE visible
12 Aug 2.4 06:26:05 12° SSW 06:27:10 15° S 06:28:52 10° SSE visible
13 Aug 2.6 06:45:59 10° SW 06:47:15 12° SSW 06:48:31 10° SSE visible
